Price, UT

4:02 PM MDT on April 26, 2017 (GMT -0600)
Carbon County

Weather History for KPUC - February, 2013

Change the Weather History Date:

Thursday, February 28, 2013

  Actual Average Record
Temperature  
Mean Temperature 30 °F -  
Max Temperature 45 °F 38 °F 64 °F (1986)
Min Temperature 16 °F 19 °F 6 °F (1971)
Degree Days  
Heating Degree Days 34    
Moisture  
Dew Point 10 °F    
Average Humidity 42    
Maximum Humidity 62    
Minimum Humidity 22    
Precipitation  
Precipitation 0.00 in - - ()
Sea Level Pressure  
Sea Level Pressure 30.47 in    
Wind  
Wind Speed 5 mph (North)    
Max Wind Speed 20 mph    
Max Gust Speed 28 mph    
Visibility 10 miles    
Events      
Averages and records for this station are not official NWS values.
T = Trace of Precipitation, MM = Missing Value Source: NWS Daily Summary

Daily Weather History Graph

Daily Weather History Graph

Search for Another Location

Airport or City:

Trip Planner

Search our weather history database for the weather conditions in past years. The results will help you decide how hot, cold, wet, or windy it might be!

Date:

Astronomy

Feb. 28, 2013 Rise Set
Actual Time 6:57 AM MST 6:14 PM MST
Civil Twilight 6:29 AM MST 6:41 PM MST
Nautical Twilight 5:58 AM MST 7:12 PM MST
Astronomical Twilight 5:27 AM MST 7:43 PM MST
Moon 9:44 PM MST (2/28) 8:09 AM MST (2/28)
Length of Visible Light 12h 11m
Length of Day
11h 17m
Waning Gibbous, 90% of the Moon is Illuminated
Feb 28
Waning Gibbous
Mar 4
Last Quarter
Mar 11
New
Mar 19
First Quarter
Mar 27
Full

Hourly Weather History & Observations

Time (MST) Temp. Windchill Dew Point Humidity Pressure Visibility Wind Dir Wind Speed Gust Speed Precip Events Conditions
12:53 AM 23.0 °F 13.9 °F 6.8 °F 50% 30.32 in 10.0 mi NNE 8.1 mph - N/A   Clear
1:53 AM 23.0 °F - 7.0 °F 50% 30.45 in 10.0 mi Calm Calm - N/A   Clear
2:53 AM 19.0 °F 11.1 °F 6.1 °F 57% 30.45 in 10.0 mi NNE 5.8 mph - N/A   Clear
3:53 AM 24.1 °F - 3.0 °F 40% 30.43 in 10.0 mi Calm Calm - N/A   Clear
4:53 AM 18.0 °F - 5.0 °F 57% 30.47 in 10.0 mi Calm Calm - N/A   Clear
5:53 AM 16.0 °F 7.4 °F 5.0 °F 62% 30.51 in 10.0 mi North 5.8 mph - N/A   Clear
6:53 AM 16.0 °F 7.4 °F 5.0 °F 62% 30.52 in 10.0 mi NNE 5.8 mph - N/A   Clear
7:53 AM 21.9 °F 17.2 °F 8.1 °F 55% 30.52 in 10.0 mi North 3.5 mph - N/A   Clear
8:53 AM 27.0 °F - 6.1 °F 41% 30.52 in 10.0 mi Calm Calm - N/A   Clear
9:53 AM 30.9 °F 27.5 °F 8.1 °F 38% 30.52 in 10.0 mi SW 3.5 mph - N/A   Clear
10:53 AM 34.0 °F - 6.1 °F 31% 30.51 in 10.0 mi Calm Calm - N/A   Clear
11:53 AM 37.9 °F 34.4 °F 6.1 °F 27% 30.50 in 10.0 mi SSE 4.6 mph - N/A   Clear
12:53 PM 39.9 °F 35.8 °F 5.0 °F 23% 30.45 in 10.0 mi South 5.8 mph - N/A   Clear
1:53 PM 41.0 °F - 6.1 °F 24% 30.44 in 10.0 mi Calm Calm - N/A   Clear
2:53 PM 45.0 °F 41.8 °F 8.1 °F 22% 30.43 in 10.0 mi Variable 5.8 mph - N/A   Partly Cloudy
3:53 PM 45.0 °F 37.1 °F 16.0 °F 31% 30.41 in 10.0 mi NNW 19.6 mph 27.6 mph N/A   Mostly Cloudy
4:53 PM 45.0 °F 39.3 °F 16.0 °F 31% 30.44 in 10.0 mi NNW 11.5 mph - N/A   Mostly Cloudy
5:53 PM 42.1 °F 38.4 °F 15.1 °F 34% 30.48 in 10.0 mi Variable 5.8 mph - N/A   Overcast
6:53 PM 37.9 °F 31.5 °F 16.0 °F 41% 30.50 in 10.0 mi North 9.2 mph - N/A   Clear
7:53 PM 37.9 °F 30.0 °F 15.1 °F 39% 30.49 in 10.0 mi NNW 12.7 mph 17.3 mph N/A   Clear
8:53 PM 35.1 °F 30.1 °F 15.1 °F 44% 30.50 in 10.0 mi NW 5.8 mph - N/A   Clear
9:53 PM 33.1 °F 30.0 °F 16.0 °F 50% 30.50 in 10.0 mi NE 3.5 mph - N/A   Clear
10:53 PM 30.9 °F 25.2 °F 16.0 °F 54% 30.49 in 10.0 mi NE 5.8 mph - N/A   Clear
11:53 PM 30.9 °F 27.5 °F 16.0 °F 54% 30.47 in 10.0 mi North 3.5 mph - N/A   Clear